User: anonymous   Login
Location: Kuppenheim
(48.8299°N, 8.2568°E)
Time: 20:57:06
(UTC+00:00)
Language:

OE (NEXTSAT) - Orbit

View from above orbital plane
View from above orbital plane
View from above satellite
View from above satellite

Ground track
Ground track

The orbit data is extracted from the following two-line orbital elements,

1 30774U 07006C   21265.88389612  .00006065  00000-0  12615-3 0  9990
2 30774  46.0011  52.3535 0005560 331.6313  28.4290 15.46718549812336
Epoch (UTC): 22 September 2021 21:12:48
Eccentricity: 0.0005560
inclination: 46.0011°
perigee height: 422 km
apogee height: 430 km
right ascension of ascending node: 52.3535°
argument of perigee: 331.6313°
revolutions per day: 15.46718549
mean anomaly at epoch: 28.4290°
orbit number at epoch: 81233

The dashed part of the orbit path shows where the satellite is in the earth's shadow,  

DLR